Location: Poughquag
(41.6090°N, 73.6820°W)
Time: 01:55:35
(UTC-04:00)

ISS - Visible Passes

Search period start: 23 May 2019 00:00
Search period end: 02 June 2019 00:00
Orbit: 407 x 410 km, 51.6° (Epoch: 23 May)

Date Brightness Start Highest point End Pass type
(mag) Time Alt. Az. Time Alt. Az. Time Alt. Az.
23 May -1.1 00:33:19 10° NNW 00:35:26 20° N 00:35:26 20° N visible
23 May -0.8 22:05:01 10° NW 22:07:09 16° N 22:09:19 10° NNE visible
23 May -1.0 23:42:28 10° NNW 23:44:42 17° N 23:45:56 14° NE visible
24 May -0.6 01:18:38 10° NW 01:18:38 10° NW 01:18:38 10° NW visible
24 May -0.9 21:13:32 10° WNW 21:15:59 19° NNW 21:18:25 10° NNE visible
24 May -0.8 22:51:30 10° NNW 22:53:30 15° N 22:55:29 10° NE visible
25 May -1.2 00:27:48 10° NW 00:29:13 20° NNW 00:29:13 20° NNW visible
25 May -0.8 22:00:20 10° NW 22:02:15 14° N 22:04:10 10° NE visible
25 May -1.6 23:36:59 10° NW 23:39:43 23° NNE 23:39:50 23° NNE visible
26 May -0.9 21:08:58 10° NW 21:11:00 15° N 21:13:03 10° NNE visible
26 May -1.2 22:46:08 10° NNW 22:48:32 18° NNE 22:50:28 12° NE visible
27 May -1.1 00:22:18 10° NW 00:23:11 17° NW 00:23:11 17° NW visible
27 May -1.0 21:55:12 10° NNW 21:57:18 16° N 21:59:24 10° NE visible
27 May -2.1 23:31:25 10° NW 23:33:50 34° N 23:33:50 34° N visible
28 May -1.0 21:04:06 10° NNW 21:06:02 14° N 21:07:58 10° NE visible
28 May -2.0 22:40:34 10° NW 22:43:26 27° NNE 22:44:30 22° NE visible
29 May -0.8 00:16:56 10° WNW 00:17:14 12° WNW 00:17:14 12° WNW visible
29 May -1.5 21:49:41 10° NNW 21:52:14 20° NNE 21:54:48 10° ENE visible
29 May -2.3 23:25:52 10° NW 23:27:55 35° NW 23:27:55 35° NW visible
30 May -1.2 20:58:46 10° NNW 21:01:00 17° NNE 21:03:14 10° NE visible
30 May -3.2 22:34:55 10° NW 22:38:09 49° NNE 22:38:39 44° ENE visible
31 May -2.3 21:44:01 10° NW 21:47:02 32° NNE 21:49:23 14° E visible
31 May -1.8 23:20:33 10° WNW 23:22:06 23° W 23:22:06 23° W visible
01 Jun -1.8 20:53:07 10° NW 20:55:50 23° NNE 20:58:32 10° ENE visible
01 Jun -3.9 22:29:22 10° WNW 22:32:40 69° SW 22:32:53 66° S visible
